date,batt_volt,AirTemp_C,Solar_kW,RH,Manual_BP,StationID,WS_ms,PTemp,WS_15min_max,Prog_Sig,Solar_Raw,Bar_mbar,Solar_MJ,Max_WS_2min,Pressure_Raw,Rain_mm,WD_15min_ave,Max_AirTemp_1min,WindDir,WS_15min_med,WS_15min_ave,Elevation_Correction
2022-02-01T00:06:04Z,13.91095,-8.014955,0.0,57.27396,0,1156,3.038,-7.927937,4.508,43690,0.0,1029.319,0.0,4.508,1027.519,0,29.1818543244,-7.947001,16.65194,2.548,2.49441893432,1.80078
2022-02-01T00:21:03Z,13.91648,-8.048945,0.0,57.138,0,1156,3.0968,-8.194526,4.4688,43690,0.0,1029.319,0.0,4.038,1027.519,0,24.0536483264,-7.981001,3.282121,2.1952,2.26263333333,1.80078
2022-02-01T00:36:05Z,13.92202,-8.184908,0.0,57.71584,0,1156,3.2536,-8.463379,4.7236,43690,0.0,1029.319,0.0,3.979,1027.519,0,22.5916320875,-8.15,16.55541,2.352,2.29585176294,1.80078
2022-02-01T00:51:03Z,13.92755,-8.35486,0.0,58.12372,0,1156,3.3124,-8.66671,5.0176,43690,0.0,1029.319,0.0,3.391,1027.519,0,28.115699123,-8.29,26.5707,2.2638,2.35328333333,1.80078
2022-02-01T01:06:01Z,13.93309,-8.694765,0.0,58.5996,0,1156,2.2148,-8.870045,4.8216,43690,0.0,1030.38,0.0,3.528,1028.579,0,35.3261266299,-8.49,28.11523,2.2148,2.17746666607,1.80078
2022-02-01T01:21:03Z,13.93309,-8.761608,0.0,58.77169,0,1156,3.1752,-9.02819,3.9004,43690,0.0,1030.38,0.0,3.9,1028.579,0,26.5509441353,-8.559999,6.081798,2.2932,2.34450588235,1.80078
2022-02-01T01:36:06Z,13.94454,-8.93189,0.0,59.68884,0,1156,1.0976,-9.208931,4.0964,43690,0.0,1030.38,0.0,3.998,1028.579,0,29.3666745586,-8.9,62.79632,2.4108,2.43399526568,1.80078
2022-02-01T01:51:05Z,13.95016,-8.897354,0.0,59.99582,0,1156,2.0188,-9.412262,4.1356,43690,0.0,1030.38,0.0,3.352,1028.579,0,37.4475524622,-8.86,18.84888,1.9796,2.0383999994,1.80078
2022-02-01T02:06:03Z,13.9577,-9.029921,0.0,60.44435,0,1156,3.4888,-9.617855,4.018,43690,0.0,1031.404,0.0,2.979,1029.603,0,32.286787751,-8.96,17.3786,2.1952,2.17933333155,1.80078
2022-02-01T02:21:07Z,13.96492,-8.753094,0.0,59.46772,0,1156,1.5484,-9.75341,3.4888,43690,0.0,1031.404,0.0,2.626,1029.603,0,22.00084942,-8.689999,21.17139,2.0188,2.00337514615,1.80078
2022-02-01T02:36:03Z,13.96526,-8.718151,0.0,58.95948,0,1156,2.1952,-9.913818,2.9596,43690,0.0,1031.404,0.0,2.666,1029.603,0,28.9711565921,-8.58,44.22709,1.7248,1.69166666429,1.80078
2022-02-01T02:51:06Z,13.97104,-9.092154,0.0,59.74157,0,1156,0.8624,-9.983852,4.1356,43690,0.0,1031.404,0.0,3.234,1029.603,0,11.4961593748,-8.889999,320.3087,2.1756,2.1892852071,1.80078
2022-02-01T03:06:04Z,13.97105,-8.820137,0.0,58.44949,0,1156,2.3324,-10.09682,3.8416,43690,0.0,1032.518,0.0,3.626,1030.717,0,1.86107011956,-8.75,10.38082,2.254,2.32913333274,1.80078
2022-02-01T03:21:06Z,13.97658,-9.466175,0.0,61.98571,0,1156,2.1364,-10.18945,3.2928,43690,0.0,1032.518,0.0,2.626,1030.717,0,5.96844274994,-9.33,11.58789,1.9796,1.93819644911,1.80078
2022-02-01T03:36:08Z,13.98212,-9.670187,0.0,62.97176,0,1156,2.3912,-10.34985,2.94,43690,0.0,1032.518,0.0,2.548,1030.717,0,33.5066745362,-9.53,22.18599,1.6072,1.66936331065,1.80078
2022-02-01T03:51:08Z,13.98212,-9.942203,0.0004837526,63.5158,0,1156,1.9992,-10.55771,2.6264,43690,0.03386268,1032.518,2.418763e-06,2.097,1030.717,0,40.1769113559,-9.769999,63.63684,1.6268,1.64002130059,1.80078
2022-02-01T04:06:08Z,13.98766,-10.11221,0.000483777,63.48179,0,1156,1.372,-10.74296,2.646,43690,0.03386439,1032.192,2.418885e-06,2.646,1030.391,0,49.9568170151,-9.91,75.3213,1.6072,1.62471242426,1.80078
2022-02-01T04:21:05Z,13.9932,-10.65625,0.0,65.79393,0,1156,1.7052,-10.97567,2.6264,43690,0.0,1032.192,0.0,2.509,1030.391,0,61.7957549,-10.55,53.78713,1.8522,1.83481666667,1.80078
2022-02-01T04:36:06Z,14.00427,-11.09681,0.0,67.46345,0,1156,2.058,-11.2784,2.548,43690,0.0,1032.192,0.0,2.509,1030.391,0,57.895355202,-11.1,40.60796,1.9208,1.92103195266,1.80078
2022-02-01T04:51:07Z,14.01208,-10.54939,0.0,64.44446,0,1156,1.6072,-11.5337,2.5676,43690,0.0,1032.192,0.0,2.097,1030.391,0,53.379899489,-10.52,49.76371,1.9012,1.88739881657,1.80078
2022-02-01T05:06:07Z,14.02351,-10.95635,0.0,67.30374,0,1156,1.3916,-11.76866,2.0972,43690,0.0,1033.266,0.0,1.646,1031.465,0,49.0596803935,-10.99,75.45738,1.47,1.45457514556,1.80078
2022-02-01T05:21:07Z,14.02541,-10.68066,0.0,64.625,0,1156,1.2152,-11.98103,2.6656,43690,0.0,1033.266,0.0,2.038,1031.465,0,51.8806922958,-10.48,80.4656,1.5484,1.53309112071,1.80078
2022-02-01T05:36:07Z,14.03673,-11.4966,0.0,67.34692,0,1156,1.4896,-12.14822,2.1364,43690,0.0,1033.266,0.0,1.842,1031.465,0,62.2108578546,-11.12,63.5619,1.372,1.37733490888,1.80078
2022-02-01T05:51:08Z,14.04227,-11.83674,0.0,69.42175,0,1156,1.47,-12.38544,1.9012,43690,0.0,1033.266,0.0,1.568,1031.465,0,62.8966810977,-11.67,64.02074,1.3524,1.36191005917,1.80078
2022-02-01T06:06:08Z,14.05335,-11.59864,0.0,69.2857,0,1156,1.9012,-12.62266,2.4304,43690,0.0,1033.678,0.0,2.43,1031.877,0,58.1675841413,-11.73,37.69761,1.7052,1.72526390533,1.80078
2022-02-01T06:21:09Z,14.05889,-11.39456,0.0,67.38094,0,1156,1.2936,-12.83955,2.5088,43690,0.0,1033.678,0.0,2.274,1031.877,0,53.0173915891,-11.43,48.05782,1.8032,1.81166627219,1.80078
2022-02-01T06:36:08Z,14.05335,-11.08844,0.0,65.44216,0,1156,1.47,-12.95929,2.352,43690,0.0,1033.678,0.0,2.097,1031.877,0,60.5558762999,-11.16,66.45986,1.568,1.57890177456,1.80078
2022-02-01T06:51:09Z,14.05335,-11.90477,0.0,69.2857,0,1156,3.2928,-13.00673,4.2924,43690,0.0,1033.678,0.0,4.292,1031.877,0,75.317274119,-12.04,75.85407,2.5284,2.61538224852,1.80078
2022-02-01T07:06:09Z,14.04781,-11.56463,0.0,66.93877,0,1156,4.018,-12.88699,4.704,43690,0.0,1034.331,0.0,4.626,1032.531,0,86.2652300986,-11.67,82.44693,3.6064,3.59155502959,1.80078
2022-02-01T07:21:11Z,14.04227,-11.70069,0.0,65.44216,0,1156,4.1356,-12.7424,5.4488,43690,0.0,1034.331,0.0,5.449,1032.531,0,75.9903842428,-11.6,67.76394,4.2336,4.16540591716,1.80078
2022-02-01T07:36:12Z,14.03673,-11.90477,0.0,65.40815,0,1156,4.3904,-12.62266,6.389599,43690,0.0,1034.331,0.0,6.39,1032.531,0,71.7110934405,-11.84,52.9119,4.4296,4.46450886982,1.80078
2022-02-01T07:51:11Z,14.03673,-12.00681,0.0,64.93196,0,1156,4.508,-12.55262,5.9584,43690,0.0,1034.331,0.0,5.527,1032.531,0,68.1691343949,-11.9,56.34115,4.4492,4.4647408284,1.80078
2022-02-01T08:06:12Z,14.03673,-12.27892,0.0,65.34013,0,1156,4.8804,-12.52777,5.8604,43690,0.0,1034.495,0.0,5.704,1032.694,0,65.2297450216,-12.18,72.25577,4.3316,4.32266982249,1.80078
2022-02-01T08:21:12Z,14.04781,-12.65307,0.0,66.25849,0,1156,3.9984,-12.60007,4.9588,43690,0.0,1034.495,0.0,4.9,1032.694,0,67.2532669693,-12.48,75.05713,4.0572,4.03783195266,1.80078
2022-02-01T08:36:12Z,14.05335,-12.65307,0.0,65.17006,0,1156,4.1944,-12.7424,5.3508,43690,0.0,1034.495,0.0,5.351,1032.694,0,66.7592080446,-12.52,53.51564,4.0964,4.11542011834,1.80078
2022-02-01T08:51:13Z,14.05335,-12.82313,0.0,64.14965,0,1156,3.4692,-12.86214,5.3312,43690,0.0,1034.495,0.0,5.194,1032.694,0,68.8311325148,-12.76,78.29318,3.9984,4.01707218935,1.80078
2022-02-01T09:06:14Z,14.06443,-13.12926,0.0,64.2857,0,1156,3.4692,-13.03158,5.684,43690,0.0,1035.556,0.0,4.88,1033.755,0,72.9311166523,-12.89,85.22414,3.8024,3.83000236686,1.80078
2022-02-01T09:21:14Z,14.06443,-13.06123,0.0,63.63944,0,1156,5.7624,-13.17617,6.7032,43690,0.0,1035.556,0.0,6.311,1033.755,0,74.2548555371,-12.89,65.08332,4.1552,4.23661538462,1.80078
2022-02-01T09:36:16Z,14.06443,-13.29932,0.0,62.89114,0,1156,4.6256,-13.27107,5.9976,43690,0.0,1035.556,0.0,5.488,1033.755,0,69.1179175296,-13.2,73.9704,4.4492,4.48410887574,1.80078
2022-02-01T09:51:17Z,14.06997,-13.46939,0.0,61.22448,0,1156,5.0372,-13.39306,6.174,43690,0.0,1035.556,0.0,6.174,1033.755,0,68.1759484886,-13.47,66.41155,4.4884,4.57109112426,1.80078
2022-02-01T10:06:12Z,14.07584,-13.87712,0.0,61.6677,0,1156,4.1552,-13.53766,6.781599,43690,0.0,1035.563,0.0,6.252,1033.762,0,67.8805830402,-13.64,68.68277,4.8412,4.89019999405,1.80078
2022-02-01T10:21:13Z,14.0822,-13.94355,0.0,61.46736,0,1156,4.312,-13.70936,6.0956,43690,0.0,1035.563,0.0,5.429,1033.762,0,65.8524564096,-13.88,77.06754,4.508,4.56877159763,1.80078
2022-02-01T10:36:13Z,14.08889,-14.14456,0.0,61.7809,0,1156,3.6652,-13.85621,5.7232,43690,0.0,1035.563,0.0,4.939,1033.762,0,65.7897854625,-13.97,69.46812,4.214,4.22119053254,1.80078
2022-02-01T10:51:13Z,14.09664,-14.27764,0.0,62.4686,0,1156,3.5672,-14.02565,5.3508,43690,0.0,1035.563,0.0,4.822,1033.762,0,70.3258444472,-14.14,87.73911,4.018,4.05731597633,1.80078
2022-02-01T11:06:14Z,14.10246,-14.48113,0.0,62.57226,0,1156,3.6848,-14.19736,5.3704,43690,0.0,1036.471,0.0,4.096,1034.67,0,70.3858604976,-14.31,76.41131,3.724,3.71576568047,1.80078
2022-02-01T11:21:15Z,14.108,-14.34502,0.0009681347,64.2055,0,1156,2.94,-14.42102,4.3904,43690,0.06776943,1036.471,4.840674e-06,4.175,1034.67,0,82.0505770128,-14.31,82.11261,3.3124,3.32585325444,1.80078
2022-02-01T11:36:14Z,14.11355,-14.51514,0.004840759,64.92003,0,1156,3.2536,-14.59272,4.6452,43690,0.3388531,1036.471,2.42038e-05,4.645,1034.67,0,80.1271747868,-14.48,73.19836,3.4496,3.46224142012,1.80078
2022-02-01T11:51:15Z,14.11355,-14.5832,0.01113385,64.57978,0,1156,3.9004,-14.74184,4.6844,43690,0.7793695,1036.471,5.566925e-05,4.312,1034.67,0,68.7316945423,-14.48,74.96187,3.5868,3.64502011834,1.80078
2022-02-01T12:06:17Z,14.11355,-14.17489,0.01597465,63.6611,0,1156,3.6848,-14.76669,5.782,43690,1.118226,1037.616,7.987327e-05,5.116,1035.815,0,65.0070588116,-14.21,79.09287,3.9396,4.02426272189,1.80078
2022-02-01T12:21:15Z,14.10246,-14.10684,0.0198473,64.37562,0,1156,3.2732,-14.69213,5.9584,43690,1.389311,1037.616,9.92365e-05,4.567,1035.815,0,65.9500827525,-14.07,45.17522,3.9004,3.8836,1.80078
2022-02-01T12:36:16Z,14.10246,-13.97074,0.02275178,64.47771,0,1156,3.4692,-14.64243,4.4296,43690,1.592625,1037.616,0.0001137589,3.724,1035.815,0,74.0865765168,-14.0,68.48757,2.6852,2.72764733728,1.80078
2022-02-01T12:51:19Z,14.10246,-14.03879,0.02565626,62.67437,0,1156,1.2936,-14.61758,4.2336,43690,1.795938,1037.616,0.0001282813,1.352,1035.815,0,95.4147977997,-13.83,107.3093,2.0188,1.9866745497,1.80078
2022-02-01T13:06:17Z,14.108,-13.63049,0.02759259,60.56481,0,1156,0.196,-14.66728,2.1952,43690,1.931481,1037.779,0.0001379629,1.823,1035.978,0,97.0912356808,-13.53,60.87784,1.0388,1.03996665833,1.80078
2022-02-01T13:21:18Z,14.108,-13.32427,0.03194931,58.45525,0,1156,3.528,-14.64243,4.8804,43690,2.236452,1037.779,0.0001597465,3.665,1035.978,0,60.4199484548,-13.26,47.4219,2.4304,2.43643076627,1.80078
2022-02-01T13:36:19Z,14.09692,-12.77986,0.05082844,56.20959,0,1156,2.646,-14.39617,4.8804,43690,3.557991,1037.779,0.0002541422,3.861,1035.978,0,52.4179350648,-12.75,45.61006,2.9988,3.02721420118,1.80078
2022-02-01T13:51:18Z,14.0803,-11.96326,0.3417111,52.94317,0,1156,2.058,-13.83136,3.4888,43690,23.91978,1037.779,0.001708556,2.881,1035.978,0,69.5119600307,-11.93,71.99046,1.9208,1.96695857929,1.80078
2022-02-01T14:06:18Z,14.02051,-11.93786,0.3775062,51.66836,0,1156,2.4696,-12.29055,4.5276,43690,26.42544,1038.823,0.001887531,2.47,1037.022,0,80.078814831,-11.84,30.42957,2.4304,2.46646863905,1.80078
2022-02-01T14:21:19Z,13.96136,-11.70702,0.4083516,50.0228,0,1156,2.0776,-10.48767,4.1944,43690,28.58461,1038.823,0.002041758,3.822,1037.022,0,64.9809330746,-11.57,86.62954,2.352,2.31732307515,1.80078
2022-02-01T14:36:20Z,13.91799,-11.10424,0.435314,48.51088,0,1156,2.2932,-8.983006,3.7044,43690,30.47198,1038.823,0.00217657,2.96,1037.022,0,65.2637103425,-11.1,54.83804,2.744,2.57397869822,1.80078
2022-02-01T14:51:21Z,13.88885,-11.17596,0.461803,47.17898,0,1156,2.4108,-7.726864,5.0176,43690,32.32621,1038.823,0.002309015,3.822,1037.022,0,81.7987684793,-10.94,93.29948,2.646,2.63277869822,1.80078
2022-02-01T15:06:17Z,13.86447,-10.80676,0.4172264,46.72958,0,1156,2.7244,-6.642422,4.1944,43690,29.20584,1039.207,0.002086132,3.528,1037.406,0,84.6920692193,-10.6,47.14895,2.009,2.16463333036,1.80078
2022-02-01T15:21:20Z,13.8399,-10.54006,0.5027327,48.21644,0,1156,2.2148,-5.831352,4.5864,43690,35.19129,1039.207,0.002513663,3.469,1037.406,0,70.2616173178,-10.54,67.55059,1.96,2.01543668225,1.80078
2022-02-01T15:36:18Z,13.82655,-10.03379,0.5200792,46.10448,0,1156,2.0188,-5.198761,3.9396,43690,36.40554,1039.207,0.002600396,2.94,1037.406,0,59.0231193365,-10.0,71.81256,2.107,2.05729999762,1.80078
2022-02-01T15:51:23Z,13.81369,-9.867624,0.5321613,43.75479,0,1156,0.1372,-4.679134,4.3708,43690,37.25129,1039.207,0.002660806,2.352,1037.406,0,30.7813658979,-9.87,65.53265,1.8032,1.8592165645,1.80078
2022-02-01T16:06:23Z,13.79641,-9.055588,0.5393838,42.52734,0,1156,1.1564,-4.116581,2.94,43690,37.75687,1038.507,0.002696919,2.94,1036.706,0,51.6432978803,-8.889999,107.031,1.0976,1.12578224379,1.80078
2022-02-01T16:21:21Z,13.76873,-8.85232,0.5445492,41.8133,0,1156,3.4104,-3.470432,4.4688,43690,38.11845,1038.507,0.002722746,3.587,1036.706,0,358.72805835,-8.58,343.2746,1.6464,1.73401666488,1.80078
2022-02-01T16:36:23Z,13.76657,-9.162308,0.5430943,42.99617,0,1156,1.4504,-3.06377,3.7044,43690,38.0166,1038.507,0.002715472,3.156,1036.706,0,29.0868292673,-9.09,58.45034,1.7248,1.80841893077,1.80078
2022-02-01T16:51:23Z,13.75941,-8.21459,0.5397121,42.82201,0,1156,1.3524,-2.783623,3.2928,43690,37.77985,1038.507,0.002698561,2.313,1036.706,0,12.7313408861,-8.21,354.4035,1.5092,1.50305324911,1.80078
2022-02-01T17:06:25Z,13.74749,-7.3004,0.5348095,41.32442,0,1156,1.3328,-2.462807,3.626,43690,37.43666,1038.0,0.002674047,2.274,1036.199,0,13.2905824245,-7.3,327.2038,1.176,1.26750532189,1.80078
2022-02-01T17:21:22Z,13.74194,-8.760601,0.5231988,43.93889,0,1156,3.6064,-2.141994,3.6848,43690,36.62392,1038.0,0.002615994,3.685,1036.199,0,62.0914094085,-8.66,48.9888,1.8228,1.65876666369,1.80078
2022-02-01T17:36:24Z,13.73641,-7.70797,0.5087011,41.25638,0,1156,2.5088,-1.992886,4.5472,43690,35.60908,1038.0,0.002543506,2.509,1036.199,0,36.3371300574,-7.504,49.22989,0.9604,1.27446389941,1.80078
2022-02-01T17:51:22Z,13.73088,-7.47028,0.489829,42.64857,0,1156,1.4896,-1.821182,4.2336,43690,34.28802,1038.0,0.002449145,2.685,1036.199,0,69.6175541294,-7.47,84.38032,1.7542,1.81404999762,1.80078
2022-02-01T18:06:25Z,13.71982,-7.94566,0.4690423,40.27166,0,1156,2.2932,-1.629143,3.4496,43690,32.83296,1038.073,0.002345211,3.45,1036.272,0,67.5859525423,-7.606001,80.30595,1.6464,1.77756922899,1.80078
2022-02-01T18:21:23Z,13.71982,-7.741924,0.4448592,40.06792,0,1156,1.7052,-1.522961,4.2532,43690,31.14014,1038.073,0.002224296,4.253,1036.272,0,33.22110316,-7.674,29.4849,1.8816,1.86223332798,1.80078
2022-02-01T18:36:26Z,13.71429,-7.877777,0.4168434,39.55855,0,1156,2.2932,-1.416775,4.6452,43690,29.17904,1038.073,0.002084217,4.606,1036.272,0,52.8982978949,-7.878,48.84412,2.4304,2.30827692071,1.80078
2022-02-01T18:51:23Z,13.7141,-7.674026,0.3878624,38.77758,0,1156,2.9792,-1.394184,4.4492,43690,27.15037,1038.073,0.001939312,4.175,1036.272,0,58.2675564387,-7.538001,124.7623,2.1854,2.17571666429,1.80078
2022-02-01T19:06:26Z,13.7139,-7.26717,0.3550172,39.93134,0,1156,2.254,-1.416775,4.3708,43690,24.85121,1038.143,0.001775086,3.665,1036.342,0,81.8633911196,-7.301,87.82618,2.352,2.38400946627,1.80078
2022-02-01T19:21:22Z,13.71421,-7.979897,0.319274,38.60748,0,1156,3.8416,-1.459702,6.0956,43690,22.34918,1038.143,0.00159637,4.841,1036.342,0,73.8977359427,-7.878,57.78796,2.9988,2.90126666548,1.80078
2022-02-01T19:36:23Z,13.73087,-8.013586,0.2816219,38.70967,0,1156,3.7828,-1.821182,5.194,43690,19.71354,1038.143,0.00140811,4.841,1036.342,0,75.2170364211,-7.946001,75.5083,3.381,3.41903333333,1.80078
2022-02-01T19:51:25Z,13.74193,-7.606118,0.2429978,39.01528,0,1156,1.8424,-2.291103,4.214,43690,17.00985,1038.143,0.001214989,2.548,1036.342,0,36.3061411682,-7.436,350.1541,2.3912,2.41996212959,1.80078
2022-02-01T20:06:27Z,13.75299,-7.911366,0.2034098,38.30262,0,1156,1.6856,-2.720364,3.822,43690,14.23868,1037.991,0.001017049,3.45,1036.19,0,37.747192921,-7.708,44.79437,2.2932,2.26490177396,1.80078
2022-02-01T20:21:24Z,13.78286,-7.633846,0.1657305,38.9209,0,1156,1.862,-3.407173,3.7828,43690,11.60114,1037.991,0.0008286526,3.234,1036.19,0,36.8753655699,-7.532001,8.825466,1.9992,2.03081666429,1.80078
2022-02-01T20:36:26Z,13.82398,-7.900947,0.1271085,40.52293,0,1156,2.1952,-4.527763,3.92,43690,8.897595,1037.991,0.0006355425,3.92,1036.19,0,25.1306280192,-7.867001,39.04502,2.156,2.19183668521,1.80078
2022-02-01T20:51:24Z,13.85548,-8.232538,0.08651827,43.4212,0,1156,3.4692,-5.657387,4.312,43690,6.056279,1037.991,0.0004325914,2.509,1036.19,0,35.9291701488,-8.099999,44.4826,2.4794,2.46341666548,1.80078
2022-02-01T21:06:29Z,13.87899,-8.569565,0.03915687,45.90543,0,1156,1.764,-6.576904,4.0572,43690,2.740981,1037.044,0.0001957844,2.822,1035.243,0,43.0622211856,-8.5,55.00496,2.45,2.43840236627,1.80078
2022-02-01T21:21:28Z,13.89739,-9.210039,0.01112035,48.49589,0,1156,2.8224,-7.415085,3.822,43690,0.7784242,1037.044,5.560172e-05,3.116,1035.243,0,43.1094017006,-9.11,46.37594,2.4892,2.52548333333,1.80078
2022-02-01T21:36:27Z,13.92193,-9.850639,0.002417599,51.90312,0,1156,3.1948,-8.12901,4.116,43690,0.169232,1037.044,1.2088e-05,4.116,1035.243,0,49.3286270338,-9.78,51.06561,2.744,2.75473333333,1.80078
2022-02-01T21:51:26Z,13.93862,-10.25833,0.0004835869,53.60299,0,1156,2.7832,-8.802265,4.3512,43690,0.03385109,1037.044,2.417935e-06,4.351,1035.243,0,53.5825032839,-10.09,64.91843,2.9792,2.99296666667,1.80078
2022-02-01T22:06:29Z,13.95554,-10.29205,0.0,55.26902,0,1156,3.4104,-9.344486,4.704,43690,0.0,1037.971,0.0,4.704,1036.17,0,55.461728911,-10.22,57.29284,3.2928,3.33942248521,1.80078
2022-02-01T22:21:27Z,13.96909,-10.42324,0.0,58.03165,0,1156,3.8024,-9.75341,5.4684,43690,0.0,1037.971,0.0,5.174,1036.17,0,54.9359980387,-10.42,38.40254,3.6554,3.72341666667,1.80078
2022-02-01T22:36:26Z,13.98202,-10.75852,0.0,60.82908,0,1156,3.626,-10.07422,5.488,43690,0.0,1037.971,0.0,4.606,1036.17,0,54.1560583425,-10.62,50.76899,3.9592,4.03736666667,1.80078
2022-02-01T22:51:27Z,13.98212,-10.99627,0.0,62.42773,0,1156,3.9788,-10.32726,6.1152,43690,0.0,1037.971,0.0,4.763,1036.17,0,59.123649284,-10.93,59.48451,4.1356,4.15205,1.80078
2022-02-01T23:06:27Z,13.9932,-11.06427,-0.0004837526,62.97176,0,1156,4.2532,-10.55771,6.2524,43690,0.0,1039.373,-2.418763e-06,5.37,1037.572,0,55.166058029,-11.06,65.03705,4.4884,4.5490556213,1.80078
2022-02-01T23:21:28Z,13.9932,-11.33629,-0.0004838194,63.48179,0,1156,5.1156,-10.76555,6.1152,43690,0.0,1039.373,-2.419097e-06,5.508,1037.572,0,54.0872255688,-11.27,57.09451,4.5472,4.54453254438,1.80078
2022-02-01T23:36:28Z,14.00427,-11.33629,0.0,63.07377,0,1156,4.9,-10.95081,6.1152,43690,0.0,1039.373,0.0,5.233,1037.572,0,54.8731381183,-11.27,42.73035,4.6648,4.71823333333,1.80078
2022-02-01T23:51:30Z,14.00451,-11.43666,0.0,62.26129,0,1156,4.5472,-11.13833,6.1544,43690,0.0,1039.373,0.0,5.782,1037.572,0,61.5802291117,-11.3,80.83018,4.508,4.59270409357,1.80078
2022-02-02T00:06:29Z,14.00571,-11.50294,0.0,61.891,0,1156,4.5668,-11.2784,6.076,43690,0.0,1039.576,0.0,5.527,1037.775,0,63.3098231368,-11.44,59.8054,4.606,4.59527764706,1.80078
2022-02-02T00:21:31Z,14.00613,-11.60364,0.0,61.75783,0,1156,4.3512,-11.39363,6.0172,43690,0.0,1039.576,0.0,5.331,1037.775,0,63.3418189355,-11.57,53.91669,4.3218,4.35996235294,1.80078
2022-02-02T00:36:30Z,14.01218,-12.07965,0.0,62.54023,0,1156,2.6264,-11.58114,4.8804,43690,0.0,1039.576,0.0,2.979,1037.775,0,77.1330130122,-11.91,113.8702,2.9792,2.94219058824,1.80078
2022-02-02T00:51:30Z,14.02991,-12.34864,0.0,60.88061,0,1156,2.9008,-11.911,3.3712,43690,0.0,1039.576,0.0,2.96,1037.775,0,108.620526497,-12.18,97.8484,2.548,2.55203529412,1.80078
2022-02-02T01:06:33Z,14.04224,-12.0749,0.0,58.19714,0,1156,2.5088,-12.19566,4.0964,43690,0.0,1039.387,0.0,3.175,1037.586,0,101.040435486,-12.11,100.4623,2.8616,2.89220350877,1.80078
2022-02-02T01:21:33Z,14.04781,-12.21089,0.0,59.25169,0,1156,2.646,-12.45548,3.5476,43690,0.0,1039.387,0.0,2.783,1037.586,0,106.21851093,-12.18,106.4275,2.7244,2.74133254438,1.80078
2022-02-02T01:36:33Z,14.05335,-12.78912,0.0,64.25169,0,1156,2.5676,-12.69495,3.1948,43690,0.0,1039.387,0.0,2.744,1037.586,0,88.5929285439,-12.55,97.75782,2.5872,2.58743195266,1.80078
2022-02-02T01:51:31Z,14.05889,-12.51701,0.0,66.36054,0,1156,1.4112,-12.93444,2.6852,43690,0.0,1039.387,0.0,1.646,1037.586,0,82.3647583942,-12.52,99.68978,1.6464,1.72456666548,1.80078
2022-02-02T02:06:34Z,14.06997,-12.55103,0.0,71.15645,0,1156,2.0188,-13.24847,2.3716,43690,0.0,1039.556,0.0,2.097,1037.755,0,85.781660421,-12.52,104.1816,1.6464,1.6719147929,1.80078
2022-02-02T02:21:32Z,14.07551,-12.51701,0.0,71.87074,0,1156,1.9992,-13.44051,2.6264,43690,0.0,1039.556,0.0,2.568,1037.755,0,85.0015962533,-12.45,66.6289,1.7934,1.82023333333,1.80078
2022-02-02T02:36:35Z,14.07606,-12.72042,0.0,73.7093,0,1156,2.254,-13.61221,2.5088,43690,0.0,1039.556,0.0,2.293,1037.755,0,93.7157603313,-12.65,105.1985,1.8816,1.8897183432,1.80078
2022-02-02T02:51:31Z,14.07672,-12.24323,0.0,76.63726,0,1156,2.2344,-13.70936,3.0772,43690,0.0,1039.556,0.0,2.587,1037.755,0,97.0577346865,-12.34,112.52,1.9502,1.93176666667,1.80078
2022-02-02T03:06:34Z,14.0717,-10.8795,0.0,78.51649,0,1156,1.3524,-13.58736,4.0572,43690,0.0,1038.555,0.0,2.47,1036.754,0,117.027707809,-10.78,105.9139,2.1756,2.22581775089,1.80078
2022-02-02T03:21:32Z,14.0535,-9.795562,0.0,78.81045,0,1156,3.4496,-13.17617,5.5272,43690,0.0,1038.555,0.0,3.587,1036.754,0,111.784613462,-10.0,117.9966,2.7146,2.73723333333,1.80078
2022-02-02T03:36:33Z,14.02566,-8.401342,0.0,64.1497,0,1156,3.2732,-12.43288,6.1152,43690,0.0,1038.555,0.0,5.312,1036.754,0,113.020852807,-8.37,113.4069,3.5868,3.61776568047,1.80078
2022-02-02T03:51:32Z,14.00905,-8.401882,0.0,68.36622,0,1156,4.312,-11.62859,5.2724,43690,0.0,1038.555,0.0,5.233,1036.754,0,109.804501436,-8.33,106.9329,3.6848,3.74870295858,1.80078
2022-02-02T04:06:34Z,13.99032,-8.23619,0.0,71.5876,0,1156,3.7632,-11.02085,5.5468,43690,0.0,1037.791,0.0,5.547,1035.99,0,111.810098771,-8.2,105.6626,3.9984,4.02507455621,1.80078
2022-02-02T04:21:36Z,13.97116,-8.309835,0.0,72.59495,0,1156,4.116,-10.53511,6.1544,43690,0.0,1037.791,0.0,4.802,1035.99,0,114.335528396,-8.28,104.5575,4.1748,4.18152662722,1.80078
2022-02-02T04:36:33Z,13.95998,-8.412098,0.0,74.19246,0,1156,5.3508,-10.14426,5.8996,43690,0.0,1037.791,0.0,5.116,1035.99,0,101.039142391,-8.34,95.79328,3.969,3.927,1.80078
2022-02-02T04:51:34Z,13.95998,-8.4461,0.0,75.24653,0,1156,3.9396,-9.868634,5.4096,43690,0.0,1037.791,0.0,5.41,1035.99,0,100.20935098,-8.41,103.8082,3.7828,3.85609704142,1.80078
2022-02-02T05:06:35Z,13.95998,-8.718117,0.0,77.04864,0,1156,4.3316,-9.708226,5.6252,43690,0.0,1038.394,0.0,4.704,1036.593,0,104.683519769,-8.62,102.746,4.1552,4.14974911243,1.80078
2022-02-02T05:21:36Z,13.95985,-8.855269,0.0,78.20183,0,1156,5.39,-9.68563,5.8996,43690,0.0,1038.394,0.0,5.606,1036.593,0,120.826825254,-8.679999,101.8491,3.9004,3.90051597633,1.80078
2022-02-02T05:36:37Z,13.96519,-8.923838,0.0,78.98242,0,1156,3.9984,-9.708226,5.6252,43690,0.0,1038.394,0.0,5.625,1036.593,0,120.747964529,-8.86,115.1001,3.9004,3.88532307692,1.80078
2022-02-02T05:51:38Z,13.96443,-8.95719,0.0,79.39207,0,1156,2.2344,-9.75341,5.4096,43690,0.0,1038.394,0.0,5.174,1036.593,0,123.743244223,-8.86,138.3741,3.5476,3.50782011834,1.80078
2022-02-02T06:06:34Z,13.97089,-9.024401,0.0,79.4281,0,1156,3.43,-9.800854,5.1352,43690,0.0,1037.163,0.0,4.802,1035.362,0,122.979053412,-8.849999,102.9624,3.724,3.62156666667,1.80078
2022-02-02T06:21:35Z,13.97074,-8.888796,0.0,79.83509,0,1156,4.1944,-9.846039,4.8412,43690,0.0,1037.163,0.0,4.508,1035.362,0,116.695421293,-8.889999,103.0335,3.3908,3.42199763314,1.80078
2022-02-02T06:36:37Z,13.97104,-8.956158,0.0,80.51678,0,1156,4.4296,-9.823448,5.4292,43690,0.0,1037.163,0.0,5.312,1035.362,0,110.32414335,-8.96,132.6572,3.8612,3.82223195266,1.80078
2022-02-02T06:51:37Z,13.97105,-9.058151,0.0,81.53687,0,1156,4.1552,-9.868634,4.6256,43690,0.0,1037.163,0.0,4.077,1035.362,0,125.339666017,-9.16,138.7167,2.9792,3.01677633136,1.80078
2022-02-02T07:06:38Z,13.97105,-9.160156,0.0,81.74088,0,1156,3.038,-9.959003,4.8216,43690,0.0,1037.17,0.0,4.586,1035.369,0,129.712934584,-9.09,130.9432,3.1556,3.18436213018,1.80078
2022-02-02T07:21:38Z,13.97105,-9.194158,0.0,82.45493,0,1156,2.3716,-10.00645,4.2336,43690,0.0,1037.17,0.0,3.528,1035.369,0,132.849899492,-9.13,113.8752,2.744,2.73483786982,1.80078